Terminal Aerodrome Forecast
Issued by NWS Billings, MT

Home | Current Version | Previous Version | Graphics & Text | Print | Product List | Glossary On
Versions: 1 2 3 4 5 6 7 8 9 10 11 12 13 14 15 16 17 18 19 20 21 22 23 24 25 26 27 28 29 30 31 32
628
FTUS45 KBYZ 242006 AAA
TAFMLS
TAF AMD
KMLS 242006Z 2420/2518 15015G25KT P6SM FEW120
     FM242100 32020G35KT P6SM VCTS FEW070CB SCT150
     FM250200 32015G25KT P6SM SCT150
     FM250800 28011KT P6SM FEW120=

USA.gov is the U.S. government's official web portal to all federal, state and local government web resources and services.